[[{"header":{"parameterUnit":"m.s-1","parameterCategory":1,"la1":30.2991,"la2":30.254,"lo1":-89.0895,"lo2":-89.0444,"dy":0.0017,"dx":0.0017,"nx":28,"ny":28,"refTime":"2024-05-30T09:00:00:Z","depth":0,"parameterNumber":2,"parameterNumberName":"U-component_of_WINDS"},"data":[0,0,0,0,0,0,0,0,0,0,0,0,0,0,0,0,0,0,0,0,0,0,0,0,0,0,0,0,0,0,0,0,0,0,0,0,0,0,0,0,0,0,0,0,0,0,0,0,0,0,0,0,0,0,0,0,0,0,-3.9958,-3.9958,0,-3.9935,-3.9934,-3.9934,-3.9852,-3.985,-3.9848,-3.9847,-3.9823,-3.9824,-3.9825,0,0,0,0,0,0,0,0,0,0,0,0,0,-3.9936,-3.9936,-3.9958,-3.9958,-3.9958,-3.9935,-3.9934,-3.9934,-3.9852,-3.985,-3.9848,-3.9846,-3.9823,-3.9824,-3.9825,0,0,0,0,0,0,0,0,0,0,0,0,0,-3.9932,-3.9937,-3.9958,-3.9914,-3.991,-3.9935,-3.9934,-3.9934,-3.9853,-3.985,-3.9847,-3.9845,-3.9822,-3.9824,-3.9825,-3.9891,0,0,-3.983,-3.9831,0,0,0,0,0,0,0,0,-3.9932,-3.9933,-3.9921,-3.9917,-3.9913,-3.9893,-3.9917,-3.9919,-3.9854,-3.9875,-3.9847,-3.9843,-3.9849,-3.9848,-3.985,-3.989,-3.9889,-3.9831,-3.9831,-3.9832,-3.9833,0,0,0,0,0,0,0,-3.9933,-3.9934,-3.9949,-3.9921,-3.9916,-3.9897,-3.9893,-3.9917,-3.9878,-3.9873,-3.9867,-3.9865,-3.9846,-3.9848,-3.9848,-3.9888,-3.983,-3.9832,-3.9833,-3.9834,-3.9985,-3.9988,0,0,0,0,0,0,-3.9939,-3.9934,-3.995,-3.9948,-3.9916,-3.9899,-3.9895,-3.9902,-3.9877,-3.987,-3.9867,-3.9861,-3.9847,-3.9847,-3.9847,-3.9925,-3.9832,-3.9834,-3.9835,-3.9982,-3.9985,-3.9989,0,0,0,0,0,0,-3.9939,-3.9941,-3.9951,-3.994,-3.9939,-3.9902,-3.9911,-3.9903,-3.9906,-3.9873,-3.9866,-3.9877,-3.9845,-3.9845,-3.9881,-3.9923,-3.9834,-3.9836,-3.9978,-3.9983,-3.9987,-4.0079,0,0,0,0,0,0,-3.9939,-3.9942,-3.9965,-3.9941,-3.994,-3.9985,-3.9914,-3.9905,-3.9909,-3.99,-3.988,-3.9874,-3.9842,-3.9879,-3.9883,-3.9923,-3.9837,-3.9974,-3.998,-3.9986,-4.0072,-4.0086,-4.0098,0,0,0,0,0,-3.9938,-3.9991,-3.9967,-3.9969,-3.9969,-3.9987,-3.9987,-3.9949,-3.9912,-3.9937,-3.9916,-3.9875,-3.9917,-3.9884,-3.9887,-3.9929,-3.9971,-3.9978,-3.9985,-4.0066,-4.0084,-4.0098,0,0,0,0,0,0,-4.0021,-3.9987,-3.996,-4.0007,-4.0001,-3.9973,-4.0002,-3.9968,-3.9972,-3.9964,-3.9918,-3.9914,-3.9958,-3.9946,-3.991,-3.9993,-3.9938,-3.9946,-3.9998,-4.0014,-4.0027,-4.003,-3.9839,0,0,0,0,0,-4.0045,-4.0062,-4.0032,-4.0076,-4.0074,-4.004,-4.0046,-4.0018,-4.0009,-4.0006,-3.9988,-3.9982,-3.9995,-4.0003,-4.0013,-4.007,-4.0066,-4.01,-4.0113,-4.0124,-4.0132,-4.0165,-4.0181,-4.0011,-4.0011,-4.0011,0,0,-4.0094,-4.0078,-4.0091,-4.0093,-4.0084,-4.0104,-4.0038,-4.006,-4.0075,-4.001,-4.0044,-4.0031,-4.0021,-4.0069,-4.0089,-4.0061,-4.0178,-4.0133,-4.0142,-4.0144,-4.0174,-4.019,-4.0204,-4.0016,-4.0015,-4.0014,0,0,-4.0195,-4.0183,-4.0221,-4.0215,-4.0203,-4.018,-4.019,-4.0168,-4.0157,-4.019,-4.0143,-4.016,-4.0181,-4.0177,-4.0178,-4.0281,-4.0244,-4.0285,-4.0354,-4.0386,-4.04,-4.0411,-4.0451,-4.0465,-4.0293,-4.0293,-4.0293,0,-4.0258,-4.0285,-4.0244,-4.0272,-4.0275,-4.0217,-4.0255,-4.0251,-4.0244,-4.0248,-4.0216,-4.0244,-4.0233,-4.0282,-4.0307,-4.0309,-4.032,-4.0288,-4.0401,-4.0412,-4.0423,-4.046,-4.0475,-4.0298,-4.0298,-4.0297,-4.0297,0,-4.0365,-4.0385,-4.0416,-4.0412,-4.0419,-4.0451,-4.0417,-4.0428,-4.04,-4.0381,-4.0418,-4.0403,-4.041,-4.0419,-4.0391,-4.0464,-4.0447,-4.0409,-4.0353,-4.0445,-4.0479,-4.0493,-4.0306,-4.0304,-4.0302,-4.0301,0,0,-4.0516,-4.0491,-4.0503,-4.0502,-4.0487,-4.0502,-4.0533,-4.0541,-4.0553,-4.055,-4.0577,-4.0598,-4.0563,-4.0565,-4.0536,-4.0564,-4.0651,-4.0523,-4.0522,-4.055,-4.0734,-4.0765,-4.0782,-4.0626,-4.0628,-4.063,-4.0736,0,-4.0614,-4.0666,-4.0631,-4.0689,-4.0709,-4.0656,-4.0683,-4.0678,-4.0662,-4.0677,-4.0658,-4.0675,-4.0626,-4.0627,-4.0653,-4.0635,-4.0688,-4.0626,-4.0652,-4.0654,-4.0659,-4.0799,-4.0831,-4.0931,-4.0749,-4.0751,-4.0753,0,-4.0735,-4.0739,-4.08,-4.0784,-4.0791,-4.0816,-4.0822,-4.0836,-4.083,-4.0816,-4.0819,-4.0785,-4.0816,-4.0761,-4.0805,-4.0764,-4.0773,-4.0766,-4.0769,-4.0771,-4.071,-4.0808,-4.0962,-4.0978,-4.0773,-4.0771,-4.077,0,-4.0843,-4.0864,-4.0904,-4.0904,-4.0885,-4.0905,-4.0898,-4.0889,-4.0897,-4.0902,-4.0907,-4.0915,-4.0921,-4.0929,-4.0898,-4.086,-4.0948,-4.0889,-4.0939,-4.094,-4.0961,-4.0961,-4.1121,-4.0963,-4.0963,-4.0963,-4.0962,0,-4.0957,-4.0997,-4.0952,-4.0977,-4.1021,-4.0981,-4.1026,-4.1014,-4.1007,-4.103,-4.0983,-4.1006,-4.0963,-4.0981,-4.0957,-4.1,-4.1002,-4.0993,-4.0987,-4.0998,-4.1,-4.1005,-4.0998,-4.0967,-4.0966,-4.0965,-4.0964,0,-4.1085,-4.1057,-4.1097,-4.1077,-4.1073,-4.1107,-4.109,-4.1114,-4.1094,-4.1124,-4.1129,-4.1099,-4.1119,-4.1089,-4.1105,-4.1089,-4.1148,-4.113,-4.1151,-4.1146,-4.12,-4.1196,-4.1371,-4.1393,-4.1219,-4.122,-4.1222,0,-4.1161,-4.1191,-4.1175,-4.1187,-4.1183,-4.1203,-4.1211,-4.1174,-4.1185,-4.1182,-4.1206,-4.1222,-4.1233,-4.1268,-4.1248,-4.1261,-4.1244,-4.1305,-4.1246,-4.1258,-4.1249,-4.1249,-4.1253,-4.1317,-4.132,-4.1321,-4.1323,0,-4.1299,-4.1285,-4.1298,-4.1308,-4.132,-4.1325,-4.1328,-4.134,-4.1301,-4.1316,-4.1336,-4.1345,-4.1363,-4.1381,-4.1389,-4.1383,-4.1348,-4.1341,-4.1354,-4.1368,-4.138,-4.1377,-4.1186,-4.1338,-4.1336,-4.1335,-4.1334,-4.1334,-4.1405,-4.1431,-4.1425,-4.1442,-4.144,-4.1445,-4.1466,-4.1451,-4.1467,-4.1479,-4.1456,-4.1483,-4.1479,-4.1487,-4.1485,-4.1507,-4.148,-4.1498,-4.1503,-4.1509,-4.1519,-4.1375,-4.1508,-4.1507,-4.1507,-4.1506,-4.1506,0,-4.1544,-4.1538,-4.1554,-4.156,-4.1575,-4.154,-4.1542,-4.1557,-4.1581,-4.158,-4.1593,-4.1618,-4.1636,-4.1619,-4.1633,-4.1654,-4.1639,-4.166,-4.1659,-4.1659,-4.154,-4.1529,-4.1672,-4.1672,-4.1672,-4.1672,-4.1672,-4.1672,-4.1618,-4.166,-4.1645,-4.1687,-4.168,-4.1707,-4.1712,-4.1716,-4.1715,-4.1746,-4.1761,-4.1749,-4.1743,-4.1757,-4.1773,-4.1768,-4.1777,-4.1804,-4.1794,-4.1683,-4.1667,-4.1651,-4.1641,-4.1806,-4.1806,-4.1911,-4.1912,-4.1913]},{"header":{"parameterUnit":"m.s-1","parameterCategory":1,"la1":30.2991,"la2":30.254,"lo1":-89.0895,"lo2":-89.0444,"dy":0.0017,"dx":0.0017,"nx":28,"ny":28,"refTime":"2024-05-30T09:00:00:Z","depth":0,"parameterNumber":3,"parameterNumberName":"V-component_of_WINDS"},"data":[0,0,0,0,0,0,0,0,0,0,0,0,0,0,0,0,0,0,0,0,0,0,0,0,0,0,0,0,0,0,0,0,0,0,0,0,0,0,0,0,0,0,0,0,0,0,0,0,0,0,0,0,0,0,0,0,0,0,-0.4062,-0.4063,0,-0.4141,-0.4142,-0.4143,-0.4145,-0.4144,-0.4143,-0.4142,-0.4227,-0.423,-0.4233,0,0,0,0,0,0,0,0,0,0,0,0,0,-0.3916,-0.3918,-0.4062,-0.4063,-0.4064,-0.4141,-0.4142,-0.4143,-0.4145,-0.4144,-0.4143,-0.4142,-0.4226,-0.4229,-0.4233,0,0,0,0,0,0,0,0,0,0,0,0,0,-0.3985,-0.3919,-0.4062,-0.4074,-0.4076,-0.4141,-0.4142,-0.4143,-0.4145,-0.4144,-0.4142,-0.4141,-0.4224,-0.4229,-0.4234,-0.4292,0,0,-0.4248,-0.425,0,0,0,0,0,0,0,0,-0.3981,-0.3991,-0.4071,-0.4073,-0.4076,-0.4131,-0.4121,-0.4193,-0.4146,-0.4119,-0.4142,-0.414,-0.4196,-0.4203,-0.4221,-0.4296,-0.43,-0.4248,-0.4251,-0.4253,-0.4255,0,0,0,0,0,0,0,-0.3977,-0.3987,-0.4093,-0.4072,-0.4075,-0.4077,-0.4085,-0.4135,-0.4165,-0.4121,-0.4122,-0.4131,-0.4197,-0.4217,-0.4223,-0.4301,-0.4248,-0.4253,-0.4255,-0.4257,-0.4428,-0.4429,0,0,0,0,0,0,-0.3969,-0.3983,-0.4091,-0.4096,-0.4024,-0.408,-0.409,-0.4115,-0.4165,-0.4171,-0.4132,-0.4131,-0.4209,-0.4218,-0.4226,-0.4299,-0.4253,-0.4258,-0.4261,-0.4426,-0.4428,-0.443,0,0,0,0,0,0,-0.3966,-0.3978,-0.4088,-0.404,-0.4054,-0.4084,-0.4113,-0.4117,-0.4137,-0.4173,-0.4178,-0.4146,-0.4209,-0.422,-0.4276,-0.4302,-0.426,-0.4264,-0.4424,-0.4427,-0.4429,-0.4444,0,0,0,0,0,0,-0.3961,-0.3977,-0.3999,-0.404,-0.4056,-0.4135,-0.4115,-0.412,-0.4145,-0.4144,-0.4188,-0.4193,-0.4208,-0.4268,-0.428,-0.4308,-0.4268,-0.4422,-0.4425,-0.4428,-0.4441,-0.4446,-0.4451,0,0,0,0,0,-0.3956,-0.4001,-0.4,-0.4013,-0.4084,-0.4136,-0.4146,-0.4161,-0.4147,-0.417,-0.4192,-0.4192,-0.4296,-0.4274,-0.4287,-0.4317,-0.442,-0.4424,-0.4428,-0.4439,-0.4445,-0.4451,0,0,0,0,0,0,-0.3965,-0.4007,-0.4007,-0.4066,-0.4097,-0.4136,-0.4166,-0.4167,-0.4204,-0.4202,-0.422,-0.423,-0.4286,-0.4306,-0.4281,-0.4376,-0.4357,-0.4364,-0.4361,-0.4367,-0.4372,-0.4367,-0.4272,0,0,0,0,0,-0.3973,-0.401,-0.4046,-0.4095,-0.411,-0.4135,-0.4158,-0.4167,-0.4201,-0.4215,-0.4242,-0.4275,-0.4316,-0.4342,-0.4381,-0.4443,-0.4453,-0.447,-0.4475,-0.4478,-0.4485,-0.4519,-0.4527,-0.4442,-0.4442,-0.4442,0,0,-0.3991,-0.4019,-0.4042,-0.4097,-0.4122,-0.4162,-0.4147,-0.4189,-0.4219,-0.4222,-0.4276,-0.4297,-0.4335,-0.4394,-0.4422,-0.4414,-0.451,-0.4483,-0.4486,-0.449,-0.4524,-0.4532,-0.4539,-0.4445,-0.4444,-0.4444,0,0,-0.4045,-0.407,-0.4113,-0.4138,-0.4176,-0.4192,-0.4203,-0.4241,-0.4255,-0.4309,-0.4312,-0.4348,-0.4417,-0.4444,-0.4468,-0.453,-0.4531,-0.4542,-0.4569,-0.4602,-0.4609,-0.4615,-0.4638,-0.4646,-0.4548,-0.4548,-0.4548,0,-0.4064,-0.4123,-0.4136,-0.4178,-0.4202,-0.4204,-0.4249,-0.4273,-0.4323,-0.434,-0.4329,-0.4415,-0.4442,-0.4507,-0.4522,-0.4541,-0.4554,-0.4538,-0.4607,-0.4613,-0.4619,-0.4641,-0.465,-0.4549,-0.4549,-0.4549,-0.4549,0,-0.4144,-0.4185,-0.4215,-0.4262,-0.4289,-0.4332,-0.4352,-0.4379,-0.4385,-0.4402,-0.4457,-0.4488,-0.4534,-0.455,-0.4556,-0.4616,-0.461,-0.4603,-0.4585,-0.4628,-0.4649,-0.4658,-0.4551,-0.455,-0.455,-0.455,0,0,-0.4208,-0.4259,-0.427,-0.4291,-0.4332,-0.4365,-0.4408,-0.4451,-0.4473,-0.4507,-0.4544,-0.4602,-0.4595,-0.4621,-0.4631,-0.466,-0.4708,-0.4649,-0.465,-0.466,-0.4777,-0.4783,-0.4793,-0.4708,-0.471,-0.4711,-0.4774,0,-0.4268,-0.4344,-0.4356,-0.4423,-0.4461,-0.4463,-0.4501,-0.453,-0.4547,-0.4582,-0.4601,-0.4642,-0.463,-0.4645,-0.4674,-0.4696,-0.4732,-0.4692,-0.4745,-0.4747,-0.4737,-0.4804,-0.4811,-0.4869,-0.4782,-0.4784,-0.4785,0,-0.4348,-0.4382,-0.4453,-0.4488,-0.4505,-0.4538,-0.4578,-0.4611,-0.4645,-0.4655,-0.4684,-0.4689,-0.4735,-0.4713,-0.4777,-0.4749,-0.4771,-0.4785,-0.4787,-0.4794,-0.477,-0.4814,-0.4888,-0.4897,-0.4798,-0.4797,-0.4796,0,-0.4389,-0.4452,-0.4503,-0.4521,-0.4563,-0.4586,-0.4605,-0.4637,-0.4662,-0.4697,-0.4714,-0.4754,-0.4776,-0.4808,-0.4824,-0.4807,-0.4887,-0.4866,-0.4898,-0.4898,-0.4917,-0.4916,-0.4996,-0.4928,-0.4928,-0.4928,-0.4928,0,-0.4456,-0.4499,-0.4522,-0.4553,-0.4602,-0.4615,-0.4663,-0.4682,-0.471,-0.4745,-0.4749,-0.4782,-0.4801,-0.4838,-0.4851,-0.4902,-0.4912,-0.4922,-0.4926,-0.4923,-0.4922,-0.4939,-0.4936,-0.493,-0.493,-0.4929,-0.4929,0,-0.4511,-0.4527,-0.4583,-0.4617,-0.4627,-0.4661,-0.4692,-0.4722,-0.4738,-0.4783,-0.4794,-0.4819,-0.4862,-0.4881,-0.4934,-0.4943,-0.5002,-0.5001,-0.499,-0.4992,-0.5023,-0.502,-0.5119,-0.5133,-0.5054,-0.5055,-0.5055,0,-0.4553,-0.4586,-0.4624,-0.4647,-0.4666,-0.4704,-0.4728,-0.4742,-0.4768,-0.4808,-0.4834,-0.4876,-0.4912,-0.498,-0.5004,-0.5044,-0.5046,-0.5078,-0.5052,-0.5049,-0.5048,-0.5046,-0.505,-0.5083,-0.5084,-0.5084,-0.5085,0,-0.4626,-0.4632,-0.4667,-0.4705,-0.4734,-0.4765,-0.4795,-0.4814,-0.4833,-0.4862,-0.4905,-0.4932,-0.4985,-0.5027,-0.5069,-0.509,-0.5091,-0.5092,-0.5102,-0.5101,-0.5093,-0.5099,-0.5004,-0.5091,-0.509,-0.509,-0.5089,-0.5089,-0.4677,-0.4707,-0.4737,-0.4776,-0.48,-0.4827,-0.4858,-0.4876,-0.4912,-0.4956,-0.4962,-0.5008,-0.504,-0.5096,-0.5118,-0.5155,-0.5147,-0.5161,-0.5165,-0.5168,-0.5171,-0.5085,-0.5162,-0.5162,-0.5162,-0.5162,-0.5162,0,-0.4752,-0.4771,-0.4806,-0.4847,-0.4878,-0.4874,-0.4907,-0.4933,-0.4973,-0.5003,-0.5036,-0.5085,-0.5126,-0.5152,-0.5194,-0.5218,-0.522,-0.5229,-0.5228,-0.5233,-0.5175,-0.5163,-0.5227,-0.5227,-0.5227,-0.5227,-0.5227,-0.5227,-0.4794,-0.4844,-0.4854,-0.4915,-0.4934,-0.4979,-0.4998,-0.5024,-0.5047,-0.5101,-0.5135,-0.5151,-0.5179,-0.5222,-0.5259,-0.5266,-0.5282,-0.5291,-0.5298,-0.5244,-0.5237,-0.5231,-0.5219,-0.5294,-0.5294,-0.5353,-0.5354,-0.5354]}]]